Wind_Speed
96 99 101 103 107 110 110 110 110 113 112 117 116 117 122 123 127 127 120 120 125 118 116 114 118 114 112 111 110 109 108 108 102 103 107 113 114 119 128 133 138 141 133
99 101 106 109 112 110 110 118 121 116 118 115 123 127 127 126 117 115 114 115 106 113 121 114 113 110 109 108 107 105 105 105 102 98 104 103 104 111 114 120 121 127 133
106 110 110 109 116 116 123 110 107 111 121 125 133 129 128 120 115 112 106 104 106 106 109 108 108 107 105 105 105 103 103 102 101 97 95 100 101 102 102 108 115 117 120
103 112 114 114 115 106 109 117 121 123 130 130 133 127 122 114 110 108 106 103 103 104 105 104 101 101 100 100 99 99 98 96 95 92 90 91 94 96 98 101 106 111 114
112 110 107 110 112 117 120 128 129 131 131 132 134 129 121 114 112 105 104 103 102 102 100 97 96 95 94 93 93 94 93 93 93 92 88 85 87 88 90 95 98 105 108
99 103 110 121 128 129 130 136 130 133 136 137 135 129 118 113 108 105 103 102 100 96 94 92 91 89 90 90 90 90 91 91 91 88 84 83 83 83 85 87 89 93 102
112 118 123 128 135 134 139 138 138 142 142 136 130 120 117 112 109 106 104 101 96 93 90 87 87 87 86 85 86 87 88 87 86 85 85 84 82 82 81 81 81 85 91
121 127 133 135 139 142 145 145 146 144 140 132 125 122 118 114 110 107 103 97 94 90 88 85 83 82 81 80 79 83 85 85 84 83 81 81 81 84 82 80 79 79 84
134 135 140 145 146 149 150 152 150 143 136 128 125 120 119 115 109 105 100 95 91 88 86 83 81 80 79 78 74 76 79 81 79 79 76 76 77 80 81 81 81 81 84
140 142 148 150 150 152 154 151 143 135 128 127 124 121 117 111 107 102 97 91 87 84 83 81 79 76 74 75 73 72 73 77 77 77 76 74 73 75 77 77 79 81 84
142 147 151 152 153 156 155 143 134 129 128 125 122 117 111 106 103 98 92 87 83 81 81 79 76 73 74 74 73 72 72 75 77 76 75 73 70 71 75 76 76 78 82
148 149 149 153 155 157 143 136 132 130 126 123 117 111 106 102 99 94 88 84 80 79 78 78 76 75 75 74 72 70 69 69 70 72 72 72 69 67 68 68 70 73 76
152 152 154 157 152 143 136 131 129 127 125 117 112 106 102 98 95 91 87 81 79 77 79 79 77 75 74 72 68 66 66 68 68 69 71 71 69 67 67 65 66 67 70
153 159 160 153 140 135 135 130 128 122 118 112 107 102 98 94 92 88 84 82 78 78 80 79 77 72 70 67 66 64 65 67 68 68 69 68 67 65 64 62 63 62 65
160 160 146 139 137 130 130 128 121 116 112 108 104 98 95 91 87 84 83 80 79 80 79 76 73 69 69 66 64 63 64 65 67 68 71 70 68 66 63 60 60 61 63
153 140 139 133 130 128 123 120 117 113 108 103 99 95 91 88 84 83 81 79 78 80 75 72 70 68 67 65 64 62 60 63 66 67 69 70 70 68 65 61 61 60 63
139 134 131 129 125 121 118 116 112 108 104 100 96 93 90 85 83 82 82 81 78 77 73 71 69 65 64 63 63 62 60 59 61 63 64 66 67 66 65 62 60 60 61
133 131 128 122 120 118 115 111 106 102 98 95 93 89 86 84 82 81 80 78 76 74 72 69 66 65 64 63 61 60 58 57 57 58 59 60 60 60 60 60 60 59 58
129 124 121 119 117 114 110 104 99 96 93 90 88 86 84 81 80 79 77 74 72 71 69 67 64 64 63 61 60 58 56 55 54 54 54 55 54 55 55 57 58 57 58
119 117 116 116 113 107 102 96 92 89 86 85 85 82 80 78 78 77 74 71 69 69 67 63 61 62 61 59 57 56 55 53 52 52 51 52 51 51 52 53 54 55 54
116 115 112 108 103 99 95 91 88 84 82 81 79 79 79 77 76 75 73 70 68 68 66 62 58 59 59 57 55 55 53 50 49 50 49 50 50 49 49 50 51 51 52
113 107 103 99 95 92 90 86 82 81 80 77 77 78 78 75 73 72 71 69 67 66 63 61 57 56 55 54 53 52 50 48 47 48 48 49 49 48 47 46 46 47 48
102 97 94 92 90 88 86 82 80 79 76 76 76 75 74 72 70 69 68 67 65 63 61 57 54 53 52 52 51 50 48 47 45 46 45 46 47 46 45 44 43 43 44
94 91 89 88 87 85 82 81 79 77 76 75 73 73 71 69 67 65 64 63 63 59 57 54 52 51 50 50 50 48 46 45 44 43 44 43 44 43 43 43 42 42 42
89 87 86 85 84 82 80 79 78 77 76 73 71 69 67 65 63 61 60 58 57 56 55 52 50 48 48 49 48 47 44 43 42 42 42 42 42 41 40 40 40 41 40
85 84 83 82 80 79 80 80 78 75 72 69 67 66 64 62 60 58 56 54 54 52 51 50 49 47 47 46 46 45 43 41 42 42 41 40 40 40 40 39 38 38 38
Wind_Direction
279 280 281 282 283 286 288 288 290 288 291 295 295 303 302 299 301 303 296 297 289 291 291 290 286 284 283 281 279 276 274 272 270 265 262 260 260 259 259 258 258 258 260
279 282 282 284 286 288 289 286 286 289 295 304 303 302 303 301 300 301 297 291 294 290 289 287 286 284 283 281 279 278 276 274 272 268 265 262 259 259 259 260 259 258 258
281 283 286 289 285 286 285 294 298 303 303 304 299 306 306 300 298 299 299 296 293 291 288 286 284 284 283 281 280 280 278 276 274 271 266 264 261 259 257 257 258 259 258
286 285 284 285 292 297 301 300 307 306 305 306 308 307 306 300 302 299 298 295 293 290 288 286 285 283 282 281 280 279 277 276 275 273 269 265 263 261 258 256 256 256 256
279 283 294 297 303 306 303 306 306 307 306 309 311 311 307 305 303 300 297 296 294 291 289 287 285 284 283 282 281 279 278 277 275 274 271 269 265 262 259 257 254 255 256
301 299 298 299 305 308 306 307 306 307 310 310 311 308 306 304 302 300 298 296 295 293 290 289 288 287 286 284 282 280 278 276 275 274 272 270 268 265 262 258 254 253 253
304 303 306 307 308 308 306 309 309 309 309 309 309 308 305 304 302 301 299 298 296 294 293 291 290 288 285 283 281 279 277 276 275 274 273 272 270 266 263 261 256 252 250
305 307 308 309 309 309 310 308 307 308 308 307 308 307 305 304 303 301 300 298 296 296 295 292 290 288 285 283 280 279 277 276 275 274 271 269 268 267 265 262 259 255 251
305 306 308 309 309 308 308 308 308 308 307 308 308 307 305 303 302 301 299 298 298 297 295 292 290 288 287 284 281 279 278 277 276 274 271 269 267 266 264 263 261 258 255
306 306 306 305 306 307 307 306 307 307 307 307 307 305 303 302 301 300 298 299 298 296 294 293 291 290 288 285 284 282 280 279 278 276 274 271 268 266 265 262 261 259 258
302 302 303 304 304 307 307 306 306 306 306 305 305 303 301 301 299 298 299 299 298 297 295 294 292 291 289 287 285 283 281 280 280 278 277 274 271 267 266 264 261 259 259
302 302 303 304 304 305 304 305 304 304 304 304 302 301 300 300 299 299 299 299 298 297 295 293 293 292 291 289 287 285 282 279 277 277 276 275 273 270 266 264 263 261 258
302 302 303 304 304 303 303 303 303 303 303 302 301 300 300 299 298 299 299 299 299 297 295 294 294 293 290 288 287 285 282 279 278 276 276 275 273 271 269 266 263 261 260
300 302 304 303 302 301 302 302 302 302 302 302 301 301 300 299 299 299 299 299 297 296 294 294 293 291 288 287 286 284 282 281 280 279 277 276 275 273 271 269 267 263 261
301 302 300 300 300 300 300 301 301 301 301 301 300 300 297 297 298 298 298 297 296 295 294 293 292 290 288 288 285 283 281 280 279 278 279 279 278 277 274 271 269 267 265
299 298 298 298 299 299 299 300 300 301 301 299 298 297 297 298 298 298 297 296 295 293 293 292 291 290 289 287 285 283 280 279 278 277 277 277 277 277 277 274 272 270 268
296 297 297 297 298 298 299 299 300 299 299 298 297 296 297 297 297 297 297 297 295 294 293 292 291 290 288 287 286 284 283 280 277 276 276 275 276 276 277 275 273 270 268
296 296 297 298 298 298 298 299 298 298 297 295 295 296 295 295 296 296 295 295 294 294 293 292 292 291 289 288 286 285 284 282 279 277 276 276 274 274 274 273 273 271 268
296 297 297 297 297 297 298 297 296 295 295 294 294 293 293 294 295 295 294 293 293 292 292 292 293 291 289 288 287 286 284 283 281 279 278 276 273 272 270 270 270 269 270
295 296 296 296 297 298 297 296 295 294 294 293 293 293 293 294 295 294 295 295 294 293 292 293 292 290 289 288 287 285 284 282 281 280 278 275 273 271 270 269 268 269 268
295 295 296 296 296 295 295 294 294 294 293 292 292 292 293 294 294 295 295 295 295 294 294 293 291 289 287 287 285 283 283 282 280 279 277 275 274 273 271 270 269 267 266
295 295 295 295 294 294 294 294 294 293 293 294 293 292 293 294 294 295 295 295 294 293 292 291 289 287 285 284 283 282 282 281 280 277 276 276 275 274 273 270 268 268 266
294 295 295 294 294 294 294 294 293 293 294 293 293 294 294 294 294 293 293 292 291 290 290 289 287 285 283 283 282 282 282 280 278 275 275 275 276 276 275 273 270 269 268
295 295 295 295 294 294 294 294 295 295 295 295 295 294 293 292 292 291 291 289 289 288 286 285 284 283 282 281 280 281 279 278 276 275 275 275 275 275 274 273 272 270 269
295 295 293 293 293 295 294 295 295 296 296 295 293 292 292 291 291 290 289 287 286 285 284 284 282 280 279 279 278 278 277 276 275 274 274 274 273 273 271 270 269 270 269
294 293 293 293 293 294 295 296 296 295 294 293 293 292 292 292 291 290 288 286 285 284 283 282 281 279 278 277 276 276 276 275 274 274 274 273 273 273 272 271 270 270 270
Height
10568 10561 10555 10546 10538 10533 10526 10518 10511 10501 10489 10476 10463 10450 10437 10424 10407 10392 10380 10368 10357 10344 10334 10323 10313 10305 10298 10291 10287 10284 10284 10283 10292 10306 10300 10296 10299 10299 10293 10301 10309 10317 10329
10547 10540 10530 10523 10515 10509 10501 10491 10481 10469 10457 10443 10429 10417 10403 10388 10372 10358 10344 10332 10319 10307 10298 10287 10277 10269 10262 10255 10251 10249 10246 10244 10250 10264 10259 10259 10264 10262 10266 10265 10269 10277 10285
10522 10515 10507 10497 10487 10481 10472 10461 10449 10437 10424 10411 10398 10380 10365 10350 10336 10322 10308 10296 10285 10273 10262 10254 10243 10235 10229 10221 10216 10213 10209 10207 10208 10216 10226 10219 10224 10228 10236 10235 10233 10238 10244
10496 10489 10478 10468 10460 10447 10440 10429 10416 10403 10390 10376 10359 10341 10327 10315 10300 10288 10275 10263 10251 10239 10227 10219 10212 10203 10196 10190 10185 10179 10176 10175 10173 10176 10183 10186 10188 10192 10199 10204 10204 10202 10205
10472 10461 10448 10440 10428 10419 10410 10396 10381 10368 10355 10336 10321 10304 10291 10278 10266 10252 10241 10230 10219 10206 10194 10186 10178 10171 10164 10159 10155 10149 10146 10143 10141 10142 10148 10154 10153 10157 10163 10165 10176 10171 10172
10439 10429 10420 10410 10396 10386 10375 10360 10347 10334 10316 10301 10287 10273 10256 10245 10232 10218 10207 10196 10186 10174 10163 10155 10148 10141 10135 10130 10125 10120 10117 10114 10110 10112 10117 10120 10121 10124 10129 10135 10142 10147 10147
10410 10398 10385 10377 10366 10352 10341 10324 10309 10296 10282 10269 10252 10236 10223 10210 10198 10186 10176 10164 10154 10143 10134 10126 10119 10112 10109 10105 10098 10092 10088 10084 10084 10087 10087 10088 10093 10092 10097 10102 10110 10116 10117
10378 10365 10354 10345 10332 10317 10302 10291 10277 10261 10247 10232 10217 10203 10190 10177 10166 10154 10144 10135 10125 10115 10106 10098 10093 10086 10081 10078 10075 10067 10060 10057 10057 10060 10063 10062 10063 10062 10065 10072 10078 10082 10084
10345 10334 10323 10310 10296 10287 10273 10258 10243 10226 10210 10195 10182 10171 10158 10145 10134 10124 10115 10106 10098 10088 10079 10072 10067 10061 10056 10050 10050 10044 10036 10030 10031 10030 10033 10035 10036 10036 10037 10042 10045 10050 10049
10313 10304 10292 10281 10268 10256 10242 10226 10210 10194 10179 10165 10154 10142 10128 10114 10103 10094 10085 10078 10072 10063 10054 10047 10041 10037 10031 10024 10024 10020 10015 10007 10004 10003 10004 10007 10011 10010 10009 10015 10016 10017 10017
10290 10279 10265 10251 10236 10221 10207 10192 10179 10165 10151 10138 10127 10115 10100 10087 10075 10065 10058 10053 10047 10038 10029 10021 10016 10013 10007 10002 9999 9996 9992 9985 9978 9977 9975 9977 9982 9985 9984 9986 9990 9990 9988
10258 10245 10232 10218 10204 10189 10175 10161 10147 10134 10122 10110 10098 10086 10072 10059 10047 10038 10033 10028 10021 10014 10005 9998 9994 9989 9982 9976 9974 9971 9967 9963 9958 9953 9950 9951 9954 9957 9960 9961 9962 9963 9964
10224 10212 10200 10185 10171 10157 10143 10130 10117 10105 10091 10080 10068 10055 10043 10033 10021 10012 10006 10002 9997 9990 9981 9974 9971 9965 9960 9954 9951 9949 9944 9939 9936 9933 9929 9928 9929 9931 9932 9937 9938 9939 9939
10191 10179 10164 10151 10138 10125 10113 10099 10086 10073 10060 10048 10037 10026 10015 10007 9997 9989 9982 9976 9973 9967 9959 9953 9947 9944 9938 9933 9929 9926 9922 9916 9912 9909 9906 9905 9905 9906 9907 9911 9912 9917 9916
10158 10147 10134 10120 10109 10095 10082 10070 10057 10043 10032 10021 10008 10000 9990 9982 9975 9968 9960 9954 9949 9942 9937 9932 9925 9921 9915 9911 9908 9904 9900 9895 9891 9888 9883 9880 9880 9881 9883 9887 9889 9891 9890
10129 10114 10103 10090 10079 10066 10054 10040 10027 10014 10004 9993 9983 9973 9965 9959 9952 9946 9939 9933 9927 9917 9915 9908 9903 9898 9893 9887 9884 9882 9880 9875 9870 9866 9863 9860 9858 9858 9860 9863 9866 9868 9867
10097 10085 10074 10061 10049 10035 10024 10012 10000 9987 9975 9966 9956 9947 9941 9936 9929 9922 9915 9908 9902 9894 9890 9884 9880 9877 9870 9866 9862 9860 9858 9855 9850 9845 9842 9840 9838 9837 9838 9839 9842 9844 9844
10064 10052 10040 10028 10016 10004 9993 9983 9972 9961 9951 9941 9932 9924 9917 9913 9907 9900 9893 9886 9879 9872 9866 9862 9857 9853 9848 9843 9841 9838 9836 9833 9830 9827 9823 9821 9820 9818 9818 9818 9818 9820 9822
10032 10020 10006 9995 9984 9973 9964 9955 9945 9935 9926 9917 9908 9901 9895 9890 9885 9876 9869 9864 9858 9850 9845 9840 9836 9829 9825 9822 9819 9817 9815 9812 9810 9807 9804 9802 9802 9800 9801 9799 9799 9801 9801
10001 9990 9977 9964 9954 9945 9935 9927 9919 9911 9902 9893 9885 9877 9871 9868 9860 9852 9846 9841 9835 9827 9823 9821 9816 9808 9804 9802 9799 9797 9796 9793 9791 9788 9786 9784 9784 9783 9782 9782 9783 9782 9784
9967 9958 9947 9936 9927 9917 9908 9899 9891 9885 9878 9871 9863 9854 9847 9844 9836 9828 9822 9817 9811 9804 9800 9798 9796 9790 9785 9782 9780 9778 9777 9776 9774 9771 9769 9767 9766 9766 9765 9765 9767 9767 9766
9936 9927 9917 9908 9898 9890 9881 9874 9867 9859 9853 9848 9839 9831 9823 9820 9814 9805 9799 9794 9789 9784 9780 9777 9775 9771 9767 9764 9762 9761 9760 9759 9757 9755 9753 9750 9749 9749 9749 9750 9750 9749 9749
9906 9897 9887 9878 9869 9861 9854 9848 9841 9836 9830 9822 9815 9808 9801 9796 9791 9785 9779 9773 9768 9764 9760 9758 9756 9752 9749 9747 9745 9744 9743 9742 9741 9739 9738 9736 9734 9733 9733 9734 9734 9734 9733
9877 9868 9859 9850 9842 9835 9829 9822 9816 9811 9805 9799 9792 9785 9780 9775 9770 9765 9759 9753 9749 9745 9741 9740 9738 9735 9732 9730 9728 9727 9727 9727 9726 9724 9722 9722 9720 9720 9719 9719 9719 9719 9719
9848 9841 9833 9824 9817 9811 9804 9798 9793 9787 9781 9776 9769 9763 9758 9753 9748 9744 9740 9735 9730 9726 9723 9722 9721 9719 9716 9714 9713 9712 9712 9711 9711 9710 9709 9708 9707 9707 9706 9706 9706 9705 9705
9821 9813 9806 9800 9793 9787 9781 9775 9770 9764 9758 9753 9747 9741 9736 9731 9727 9723 9720 9716 9712 9709 9707 9705 9703 9702 9701 9699 9698 9697 9697 9696 9695 9694 9694 9694 9694 9693 9692 9692 9693 9693 9692